Tracking 30746 objects as of 19-Jun-2025
HD Live streaming from Space Station
objects crossing your sky now

COSMOS 1275 DEB

Track COSMOS 1275 DEB now!
10-day predictions


NORAD ID: 17627
Int'l Code: 1981-053KZ
Perigee: 867.3 km
Apogee: 936.2 km
Inclination: 82.9 °
Period: 102.9 minutes
Semi major axis: 7272 km
RCS: 0.0098 m2 (small)
Launch date: June 4, 1981
Source: Commonwealth of Independent States (former USSR) (CIS)
Launch site: PLESETSK MISSILE AND SPACE COMPLEX (PKMTR)

Note: This is SATELLITE DEBRIS
Your satellite tracking list
Your tracking list is empty




NASA's NSSDC Master Catalog

Two Line Element Set (TLE):
1 17627U 81053KW  25170.27222655  .00001019  00000-0  67846-3 0  9991
2 17627  82.9234 276.5263 0047353  45.9007 314.6044 13.99756915 34836
Source of the keplerian elements: AFSPC